[[{"header":{"parameterUnit":"m.s-1","parameterCategory":1,"la1":30.2991,"la2":30.254,"lo1":-89.0895,"lo2":-89.0444,"dy":0.0017,"dx":0.0017,"nx":28,"ny":28,"refTime":"2024-05-28T03:00:00:Z","depth":0,"parameterNumber":2,"parameterNumberName":"U-component_of_WINDS"},"data":[0,0,0,0,0,0,0,0,0,0,0,0,0,0,0,0,0,0,0,0,0,0,0,0,0,0,0,0,0,0,0,0,0,0,0,0,0,0,0,0,0,0,0,0,0,0,0,0,0,0,0,0,0,0,0,0,0,0,3.5275,3.5277,0,3.5475,3.5478,3.548,3.5479,3.5477,3.5474,3.5471,3.5681,3.5688,3.5696,0,0,0,0,0,0,0,0,0,0,0,0,0,3.4893,3.49,3.5274,3.5277,3.5279,3.5475,3.5478,3.5481,3.548,3.5476,3.5473,3.547,3.5678,3.5687,3.5697,0,0,0,0,0,0,0,0,0,0,0,0,0,3.5073,3.4903,3.5274,3.5302,3.5307,3.5475,3.5478,3.5481,3.548,3.5476,3.5472,3.5469,3.5675,3.5686,3.5698,3.5852,0,0,3.5735,3.574,0,0,0,0,0,0,0,0,3.5063,3.5087,3.5296,3.5301,3.5306,3.5448,3.542,3.5606,3.5481,3.5415,3.5471,3.5467,3.5607,3.5624,3.5671,3.5862,3.5871,3.5736,3.5743,3.5749,3.5752,0,0,0,0,0,0,0,3.505,3.5079,3.5354,3.5299,3.5305,3.5306,3.5328,3.5455,3.5531,3.542,3.542,3.5444,3.5609,3.5659,3.5675,3.5874,3.5736,3.5747,3.5754,3.5759,3.6204,3.6208,0,0,0,0,0,0,3.5032,3.5068,3.5348,3.536,3.5172,3.5316,3.534,3.5407,3.5529,3.5544,3.5447,3.5443,3.564,3.5661,3.5683,3.5872,3.5749,3.576,3.5767,3.6199,3.6205,3.621,0,0,0,0,0,0,3.5024,3.5057,3.534,3.5214,3.525,3.5327,3.5402,3.5413,3.5463,3.555,3.5563,3.5485,3.5638,3.5666,3.581,3.588,3.5765,3.5776,3.6194,3.6201,3.6207,3.6252,0,0,0,0,0,0,3.5013,3.5054,3.5112,3.5216,3.5257,3.5462,3.5406,3.5419,3.5483,3.548,3.5588,3.5602,3.5637,3.5792,3.5822,3.5894,3.5786,3.6188,3.6197,3.6205,3.6244,3.6259,3.6272,0,0,0,0,0,3.4999,3.5117,3.5115,3.5149,3.5331,3.5466,3.549,3.5527,3.5489,3.5549,3.5605,3.5599,3.5867,3.5807,3.5841,3.5917,3.6184,3.6194,3.6204,3.6238,3.6256,3.6272,0,0,0,0,0,0,3.502,3.5131,3.513,3.5284,3.5366,3.5466,3.5542,3.5544,3.5639,3.5632,3.5675,3.5699,3.5844,3.5895,3.5826,3.6074,3.6021,3.6038,3.6035,3.6053,3.6066,3.6052,3.5796,0,0,0,0,0,3.5042,3.5141,3.5233,3.5361,3.5402,3.5465,3.5525,3.5546,3.5633,3.5668,3.5734,3.582,3.5923,3.5991,3.6091,3.6251,3.6276,3.6321,3.6335,3.6345,3.6361,3.6452,3.6473,3.6243,3.6243,3.6243,0,0,3.509,3.5163,3.5223,3.5367,3.5433,3.5536,3.5494,3.5605,3.5683,3.5685,3.5826,3.5878,3.5976,3.6129,3.62,3.6176,3.643,3.6359,3.6367,3.6376,3.6465,3.6486,3.6506,3.6251,3.6249,3.6248,0,0,3.523,3.5294,3.5408,3.5475,3.5575,3.5616,3.5643,3.5744,3.5778,3.592,3.5924,3.6018,3.6195,3.6265,3.6324,3.6492,3.6491,3.6523,3.6596,3.6684,3.6702,3.6719,3.6781,3.6802,3.6538,3.6538,3.6538,0,3.5277,3.5432,3.5467,3.5579,3.5643,3.5649,3.5766,3.5829,3.5957,3.6002,3.5972,3.6196,3.6262,3.6434,3.6475,3.6521,3.6556,3.6512,3.6697,3.6713,3.6729,3.6789,3.6812,3.6541,3.6541,3.6541,3.654,0,3.5485,3.5593,3.5673,3.5796,3.5869,3.5983,3.6037,3.6107,3.6122,3.6167,3.6312,3.6392,3.6509,3.6551,3.6567,3.6726,3.6708,3.6687,3.6635,3.6754,3.6811,3.6834,3.6546,3.6545,3.6544,3.6543,0,0,3.5644,3.5785,3.5815,3.5871,3.5982,3.6067,3.6182,3.6295,3.6355,3.6443,3.6542,3.6692,3.6675,3.6741,3.6765,3.6843,3.6973,3.6813,3.6816,3.6842,3.7156,3.7171,3.7197,3.6973,3.6977,3.6981,3.7148,0,3.5798,3.6001,3.6036,3.6214,3.6315,3.6323,3.6423,3.6503,3.6549,3.6642,3.6692,3.6799,3.6766,3.6807,3.6884,3.6941,3.7037,3.6929,3.7067,3.7072,3.7044,3.7226,3.7244,3.7397,3.717,3.7174,3.7177,0,3.6003,3.6097,3.6285,3.6383,3.6427,3.6517,3.6625,3.6713,3.6805,3.6832,3.6908,3.6923,3.7044,3.6986,3.7155,3.7081,3.714,3.7176,3.7183,3.7199,3.7132,3.7249,3.7447,3.7471,3.7212,3.7209,3.7206,0,3.6103,3.6275,3.6411,3.6459,3.6577,3.664,3.6692,3.6779,3.6846,3.6941,3.6985,3.7093,3.7152,3.7236,3.7281,3.7234,3.7448,3.7393,3.7477,3.7476,3.7523,3.7519,3.7735,3.7557,3.7557,3.7557,3.7556,0,3.6272,3.6387,3.6457,3.6541,3.6671,3.6711,3.6839,3.689,3.6968,3.7063,3.7076,3.7165,3.7218,3.7315,3.7351,3.7487,3.7514,3.7541,3.755,3.7541,3.7538,3.7581,3.7572,3.7563,3.7561,3.756,3.7559,0,3.6405,3.6457,3.6605,3.6705,3.6733,3.6824,3.691,3.6993,3.7037,3.7158,3.7188,3.726,3.7375,3.7428,3.757,3.7595,3.775,3.775,3.7719,3.7723,3.7804,3.7796,3.8057,3.8094,3.7889,3.7891,3.7893,0,3.651,3.6599,3.6708,3.6772,3.6826,3.6929,3.6997,3.704,3.7111,3.7223,3.7292,3.7407,3.7502,3.7687,3.7752,3.7862,3.7866,3.795,3.7883,3.7872,3.787,3.7865,3.7875,3.7963,3.7965,3.7966,3.7968,0,3.6692,3.6713,3.681,3.6917,3.6998,3.7084,3.7168,3.722,3.7277,3.7357,3.7474,3.7548,3.7693,3.7809,3.7923,3.7979,3.7984,3.7988,3.8013,3.8007,3.7986,3.8,3.7754,3.7982,3.7981,3.798,3.7979,3.7978,3.6816,3.6896,3.6986,3.7094,3.7162,3.7241,3.7324,3.7379,3.7477,3.7599,3.7619,3.7745,3.7836,3.7989,3.8049,3.815,3.813,3.8166,3.8176,3.8185,3.8191,3.7968,3.817,3.817,3.817,3.8169,3.8169,0,3.7,3.7058,3.7157,3.7275,3.7361,3.7356,3.745,3.7523,3.7633,3.7716,3.7809,3.7946,3.8058,3.8132,3.8247,3.8313,3.8318,3.8342,3.8338,3.8351,3.8201,3.8168,3.8335,3.8335,3.8335,3.8335,3.8335,3.8335,3.7106,3.7242,3.7274,3.7444,3.7502,3.7625,3.7679,3.7753,3.782,3.7971,3.8064,3.8111,3.8192,3.8312,3.8416,3.8435,3.8478,3.8502,3.8521,3.8379,3.8362,3.8345,3.8315,3.851,3.8511,3.8664,3.8665,3.8666]},{"header":{"parameterUnit":"m.s-1","parameterCategory":1,"la1":30.2991,"la2":30.254,"lo1":-89.0895,"lo2":-89.0444,"dy":0.0017,"dx":0.0017,"nx":28,"ny":28,"refTime":"2024-05-28T03:00:00:Z","depth":0,"parameterNumber":3,"parameterNumberName":"V-component_of_WINDS"},"data":[0,0,0,0,0,0,0,0,0,0,0,0,0,0,0,0,0,0,0,0,0,0,0,0,0,0,0,0,0,0,0,0,0,0,0,0,0,0,0,0,0,0,0,0,0,0,0,0,0,0,0,0,0,0,0,0,0,0,1.1611,1.1612,0,1.1675,1.1676,1.1676,1.1648,1.1647,1.1645,1.1644,1.1712,1.1715,1.1718,0,0,0,0,0,0,0,0,0,0,0,0,0,1.1466,1.1469,1.1611,1.1612,1.1612,1.1675,1.1676,1.1676,1.1649,1.1647,1.1645,1.1643,1.1711,1.1715,1.1719,0,0,0,0,0,0,0,0,0,0,0,0,0,1.153,1.147,1.1611,1.1606,1.1606,1.1675,1.1676,1.1677,1.1649,1.1647,1.1644,1.1642,1.171,1.1714,1.1719,1.1797,0,0,1.1734,1.1736,0,0,0,0,0,0,0,0,1.1526,1.1535,1.1606,1.1606,1.1607,1.1651,1.165,1.1717,1.165,1.1633,1.1644,1.1641,1.1694,1.17,1.1717,1.18,1.1803,1.1735,1.1738,1.174,1.1741,0,0,0,0,0,0,0,1.1522,1.1532,1.1636,1.1607,1.1608,1.1601,1.1608,1.1662,1.1676,1.1634,1.1632,1.164,1.1694,1.1712,1.1718,1.1804,1.1734,1.1739,1.1742,1.1744,1.1953,1.1955,0,0,0,0,0,0,1.1517,1.1529,1.1634,1.1638,1.156,1.1606,1.1613,1.1639,1.1675,1.1678,1.1642,1.1639,1.1705,1.1713,1.1721,1.1814,1.174,1.1744,1.1747,1.195,1.1954,1.1956,0,0,0,0,0,0,1.1514,1.1527,1.1632,1.1583,1.1596,1.1611,1.1641,1.1642,1.1661,1.1681,1.1684,1.1659,1.1704,1.1714,1.1778,1.1816,1.1747,1.1751,1.1947,1.1951,1.1955,1.2001,0,0,0,0,0,0,1.151,1.1526,1.1555,1.1584,1.1598,1.1687,1.1643,1.1645,1.1669,1.1665,1.1697,1.1701,1.1703,1.1771,1.1783,1.1821,1.1755,1.1944,1.1949,1.1954,1.1996,1.2006,1.2014,0,0,0,0,0,1.1505,1.1566,1.1557,1.157,1.1635,1.1689,1.1698,1.1698,1.1672,1.1702,1.1715,1.1699,1.1809,1.1777,1.1791,1.1831,1.1942,1.1948,1.1953,1.1992,1.2004,1.2014,0,0,0,0,0,0,1.1543,1.157,1.156,1.1632,1.1658,1.1685,1.1722,1.1711,1.1746,1.1741,1.1741,1.1748,1.1815,1.1829,1.1793,1.1908,1.1872,1.188,1.1896,1.1908,1.1917,1.1912,1.1759,0,0,0,0,0,1.1559,1.16,1.1622,1.1684,1.1697,1.1708,1.1731,1.1729,1.1757,1.1768,1.1786,1.1814,1.1855,1.1882,1.1921,1.1997,1.2004,1.2032,1.2041,1.2048,1.2056,1.2098,1.2111,1.1976,1.1976,1.1975,0,0,1.1595,1.1614,1.164,1.1692,1.1712,1.1755,1.1717,1.1765,1.1797,1.1776,1.1837,1.1851,1.1882,1.1953,1.1985,1.1967,1.2095,1.2056,1.2062,1.2066,1.2105,1.2118,1.2129,1.198,1.1979,1.1978,0,0,1.168,1.1699,1.1752,1.1773,1.1804,1.181,1.1823,1.1851,1.1859,1.192,1.1905,1.1943,1.2014,1.2036,1.2057,1.2151,1.2138,1.2163,1.2211,1.2252,1.2262,1.2272,1.2305,1.2317,1.2171,1.2171,1.2171,0,1.172,1.1784,1.1781,1.183,1.1853,1.1834,1.1888,1.1909,1.1951,1.1968,1.1947,1.2035,1.2055,1.213,1.2153,1.217,1.2185,1.216,1.2261,1.227,1.2279,1.2311,1.2324,1.2174,1.2174,1.2173,1.2173,0,1.1832,1.1876,1.1915,1.1955,1.1983,1.2034,1.2039,1.2068,1.2063,1.2071,1.2134,1.2157,1.2199,1.2217,1.2213,1.2292,1.228,1.226,1.2224,1.2295,1.2325,1.2337,1.2178,1.2177,1.2176,1.2176,0,0,1.1944,1.1981,1.1996,1.2014,1.2046,1.208,1.213,1.2171,1.2196,1.2225,1.2267,1.2327,1.2308,1.2332,1.233,1.2366,1.2438,1.2341,1.2342,1.2359,1.2527,1.2542,1.2556,1.243,1.2432,1.2434,1.2524,0,1.2033,1.212,1.2119,1.22,1.2241,1.2223,1.2267,1.2291,1.23,1.2337,1.2347,1.2389,1.2361,1.2375,1.241,1.2422,1.2472,1.2416,1.247,1.2472,1.2463,1.2572,1.2589,1.2673,1.2536,1.2538,1.254,0,1.2148,1.218,1.2265,1.229,1.2308,1.2347,1.2384,1.2419,1.2446,1.245,1.2476,1.2469,1.252,1.2481,1.2552,1.2514,1.2535,1.2545,1.2548,1.2554,1.2511,1.2582,1.27,1.2713,1.2558,1.2557,1.2555,0,1.2222,1.2287,1.2346,1.2361,1.2393,1.2421,1.2435,1.246,1.2484,1.2517,1.2533,1.2571,1.2593,1.2623,1.2626,1.2597,1.2698,1.2659,1.2703,1.2703,1.2726,1.2724,1.285,1.2739,1.2739,1.2738,1.2738,0,1.2322,1.2374,1.2379,1.2416,1.2474,1.2472,1.253,1.2542,1.2565,1.2603,1.259,1.2627,1.2629,1.2667,1.267,1.2728,1.2738,1.2743,1.2743,1.2744,1.2744,1.2759,1.2754,1.2742,1.2741,1.274,1.274,0,1.2415,1.242,1.2484,1.2507,1.2514,1.2557,1.2577,1.2612,1.2619,1.2668,1.268,1.2691,1.2735,1.2741,1.2792,1.2794,1.2865,1.2858,1.2855,1.2854,1.2898,1.2894,1.3039,1.3058,1.2934,1.2935,1.2936,0,1.2479,1.2518,1.2546,1.2571,1.2586,1.2626,1.2651,1.265,1.2676,1.271,1.2741,1.2783,1.2817,1.2887,1.2901,1.294,1.2935,1.2983,1.2941,1.2941,1.2937,1.2934,1.2939,1.2992,1.2993,1.2994,1.2995,0,1.2591,1.2591,1.2627,1.2663,1.2692,1.2721,1.2749,1.2769,1.2772,1.2802,1.2846,1.2872,1.2924,1.2966,1.3005,1.302,1.3009,1.3008,1.302,1.3023,1.3019,1.3022,1.2878,1.3005,1.3004,1.3003,1.3003,1.3002,1.2671,1.2706,1.2731,1.2771,1.2791,1.2816,1.285,1.2861,1.2897,1.2939,1.2936,1.2984,1.3011,1.3061,1.3079,1.3117,1.3101,1.3119,1.3124,1.3128,1.3133,1.3012,1.3124,1.3124,1.3123,1.3123,1.3123,0,1.2783,1.2798,1.2835,1.2872,1.2904,1.2889,1.2918,1.2945,1.2988,1.3013,1.3046,1.3096,1.3137,1.3153,1.3193,1.322,1.3216,1.3231,1.3229,1.3233,1.3144,1.313,1.3234,1.3233,1.3233,1.3233,1.3233,1.3233,1.2845,1.2903,1.2906,1.2974,1.2988,1.3035,1.3053,1.3076,1.3096,1.3152,1.3186,1.3195,1.3217,1.3258,1.3295,1.3298,1.3314,1.3331,1.3333,1.325,1.3239,1.3229,1.3215,1.3335,1.3335,1.3418,1.3419,1.3419]}]]